Regional Weather Roundup
Issued by NWS

Home | Current Version | Previous Version | Text Only | Print | Product List | Glossary On
Versions: 1 2 3 4 5 6 7 8 9 10 11 12 13 14 15 16 17 18 19 20 21 22 23 24 25 26 27 28 29 30 31 32 33 34 35 36 37 38 39 40 41 42 43 44 45 46 47 48 49 50
000
ASUS44 KFWD 222215
RWRTX
NORTH TEXAS HOURLY WEATHER ROUNDUP
NATIONAL WEATHER SERVICE FORT WORTH TX
500 PM CDT SUN APR 22 2018

NOTE: "FAIR" INDICATES FEW OR NO CLOUDS BELOW 12,000 FEET WITH NO
SIGNIFICANT WEATHER AND/OR OBSTRUCTIONS TO VISIBILITY.

TXZ118-119-222300-
DALLAS/FORT WORTH METROPLEX

CITY           SKY/WX    TMP DP  RH WIND       PRES   REMARKS
DFW AIRPORT    PTSUNNY   66  43  43 N15       30.01S
DALLAS LOVE    PTSUNNY   68  44  42 NW18      30.02S
FTW MEACHAM    PTSUNNY   66  45  46 NW13      30.03F
DAL-EXECUTIVE  CLOUDY    67  44  43 N13G25    30.01F
FTW-ALLIANCE   PTSUNNY   65  44  46 NW13      30.03F
FTW-NAS-JRB    CLOUDY    67  43  41 NW13      30.04F
FTW-SPINKS     PTSUNNY   66  45  45 NW18G25   30.06S
ARLINGTON      PTSUNNY   65  44  46 NW17G24   30.03F
GRAND PRAIRIE  SUNNY     66  43  42 NW9G21    30.04F
ADDISON        PTSUNNY   64  43  45 NW13G21   30.03F
MESQUITE       PTSUNNY   64  43  45 W16G29    30.02S
LANCASTER      PTSUNNY   66  45  46 NW14G20   30.03S
$$

TXZ091>094-102>105-117-120-121-131>134-222300-
NORTH CENTRAL TEXAS

CITY           SKY/WX    TMP DP  RH WIND       PRES   REMARKS
SHRMAN/DENISON CLOUDY    62  47  57 NW15G22   30.02F
GAINESVILLE    PTSUNNY   63  44  49 NW14G23   30.05F
BOWIE          PTSUNNY   63  44  49 NW13G24   30.04F
BRIDGEPORT     CLOUDY    65  45  48 NW8G16    30.06F
DECATUR        PTSUNNY   63  44  49 NW6G16    30.03F
DENTON         PTSUNNY   65  46  50 NW13G24   30.02F
MCKINNEY       PTSUNNY   65  46  50 NW16G28   30.01F
BONHAM         CLOUDY    59  46  60 NW13G23   30.01S
GREENVILLE     PTSUNNY   68  46  45 NW15G21   30.01F
ROCKWALL       CLOUDY    64  46  52 MISG      30.02F
TERRELL        PTSUNNY   67  44  43 NW17G23   30.01F
WAXAHACHIE     PTSUNNY   66  46  47 W16G25    30.04S
CLEBURNE       FAIR      66  45  45 NW10G23   30.06S
GRANBURY       FAIR      68  44  40 NW13G24   30.06F
$$

TXZ083>090-098>101-113>116-127>130-139>142-154-155-222300-
WESTERN NORTH TEXAS

CITY           SKY/WX    TMP DP  RH WIND       PRES   REMARKS
WICHITA FALLS  PTSUNNY   66  43  43 N18       30.05F
WF-KICKAPOO    FAIR      65  43  43 N18       30.08F
VERNON         FAIR      69  40  34 N15G21    30.07F
ABILENE        FAIR      71  39  31 NW18G29   30.07F
ABILENE-DYESS  FAIR      71  35  27 N16G24    30.07F
GRAHAM           N/A     69  42  37 N14       30.04F
BRECKENRIDGE   FAIR      71  37  28 NW15G22   30.06F
CISCO          FAIR      70  39  32 NW13G22   30.07F
EASTLAND       FAIR      68  41  37 NW9G22    30.06F
RANGER         FAIR      69  40  34 NW12G20   30.06F
MINERAL WELLS  FAIR      65  42  43 N18       30.04F
STEPHENVILLE   FAIR      69  39  32 N13G21    30.07F
COMANCHE       FAIR      71  42  35 N9G20     30.06F
COLEMAN        FAIR      72  39  30 N15       30.07F
BRADY          FAIR      72  39  30 N14G21    30.05F
$$

TXZ143>147-156>162-174-175-222300-
CENTRAL TEXAS

CITY           SKY/WX    TMP DP  RH WIND       PRES   REMARKS
WACO           FAIR      70  45  40 NW16      30.03F
WACO-TSTC      SUNNY     68  46  45 W10G21    30.04F
WACO-MCGREGOR  FAIR      69  47  45 NW12      30.04F
HILLSBORO      FAIR      68  47  47 NW16      30.03F
CORSICANA      FAIR      68  47  46 NW16      30.02F
MEXIA          FAIR      67  46  47 NW13G22   30.01F
HEARNE         FAIR      70  47  44 NW14      30.03S
CAMERON        FAIR      72  47  41 N12G20    30.02F
TEMPLE         FAIR      72  46  39 N15       30.03F
KILLEEN        SUNNY     72  39  30 W12G18    30.03F
KILLEEN-SKYLRK FAIR      72  44  36 N12       30.03F
FORT HOOD      FAIR      72  43  35 N17       29.99F
GATESVILLE     FAIR      70  43  37 N9G15     30.04F
HAMILTON       FAIR      72  41  32 N15G24    30.05F
LAMPASAS       FAIR      71  43  35 NW10      30.03F
$$

TXZ095>097-106>112-122>126-135>138-148>153-164>167-222300-
EAST TEXAS

CITY           SKY/WX    TMP DP  RH WIND       PRES   REMARKS
PARIS          CLOUDY    59  48  67 NW13G21   30.00S
SULPHUR SPRNGS CLOUDY    61  47  60 NW15      30.02S
MOUNT PLEASANT FAIR      61  48  63 NW13      30.00F
GILMER         CLOUDY    59  47  63 NW8       29.99F
MINEOLA        CLOUDY    63  46  55 NW12G18   30.00S
TYLER          PTSUNNY   66  46  48 NW14      29.99R
LONGVIEW       PTSUNNY   63  50  62 NW17G23   29.97R
MARSHALL       CLOUDY    60  47  63 NW12G21   29.99R
ATHENS         PTSUNNY   68  45  42 N8G17     29.99S
PALESTINE      FAIR      68  48  48 W13G22    30.00F
JACKSONVILLE   FAIR      67  49  53 NW15      30.00S
HENDERSON      PTSUNNY   66  49  54 NW10G16   29.98S
CENTER         FAIR      67  49  52 W7        29.96S
NACOGDOCHES      N/A     69  51  52 W16       29.96F
LUFKIN         FAIR      71  51  49 NW8G18    29.96F
$$

SUPPLEMENTAL OBSERVATIONS (NWS FORT WORTH AREA)

CITY           SKY/WX    TMP DP  RH WIND       PRES   REMARKS
DENISON DAM      N/A     61  48  63 NW20        N/A
CADDO GRASSLND   N/A     57  46  67 NW6G15      N/A
LBJ GRASSLAND    N/A     66  45  45 NW9G20      N/A
POSSUM KINGDOM   N/A     70  41  35 NW10G22     N/A
GRANBURY         N/A     70  45  40 NW16G23     N/A
COMANCHE         N/A     72  39  30 N14G24      N/A
MCGREGOR         N/A     72  45  37 NW6G18      N/A
TEMPLE           N/A     73  45  35 NW13        N/A
LAKE LIMESTONE   N/A     70  48  46 NW10G18     N/A
ATHENS           N/A     70  48  46 NW5         N/A
PALESTINE        N/A     70  48  46 W7G17       N/A
$$

SUPPLEMENTAL OBSERVATIONS (NWS NORMAN AREA)

CITY           SKY/WX    TMP DP  RH WIND       PRES   REMARKS
GOODLETT         N/A     69  35  28 NW12G21   30.07F
ODELL            N/A     67  41  38 N15       30.08F
CROWELL          N/A     70  36  28 NW13      30.08F
KNOX CITY        N/A     71  34  25 NW17      30.08F
SEYMOUR          N/A     70  38  31 NW13G21   30.06F
MILLERS CREEK    N/A     72  37  28 N12G21      N/A
$$

SUPPLEMENTAL OBSERVATIONS (NWS SAN ANGELO AREA)

CITY           SKY/WX    TMP DP  RH WIND       PRES   REMARKS
WEINERT          N/A     69  36  29 NW15      30.08F
HASKELL          N/A     70  33  26 N15G22    30.08S
THROCKMORTON     N/A     69  43  38 NW8       30.08S
STAMFORD         N/A     71  38  30 NW12      30.08F
CLYDE            N/A     69  40  34 N17       30.09S
HAMBY            N/A     72  37  28 N12         N/A
IVIE RESERVOIR   N/A     75  41  29 NW10        N/A
COLORADO BEND    N/A     73  39  29 N9G17       N/A
$$

SUPPLEMENTAL OBSERVATIONS (NWS SHREVEPORT AREA)

CITY           SKY/WX    TMP DP  RH WIND       PRES   REMARKS
TEXARKANA        N/A     59  48  67 NW8G17      N/A
LINDEN           N/A     61  46  59 NW10        N/A
CADDO LAKE       N/A     61  48  63 NW5G16      N/A
N SABINE NF      N/A     68  52  56 MISG        N/A
$$

SUPPLEMENTAL OBSERVATIONS ARE A COLLECTION OF AUTOMATED INSTRUMENTS
THAT ARE MAINTAINED BY A VARIETY OF FEDERAL AND STATE AGENCIES.
CERTAIN ELEMENTS...SUCH AS HUMIDITY VALUES AND SUSTAINED WIND
SPEEDS...MAY BE APPROXIMATED.





USA.gov is the U.S. government's official web portal to all federal, state and local government web resources and services.